[[{"header":{"parameterUnit":"m.s-1","parameterCategory":1,"la1":30.2991,"la2":30.254,"lo1":-89.0895,"lo2":-89.0444,"dy":0.0017,"dx":0.0017,"nx":28,"ny":28,"refTime":"2025-05-15T03:00:00:Z","depth":0,"parameterNumber":2,"parameterNumberName":"U-component_of_WINDS"},"data":[0,0,0,0,0,0,0,0,0,0,0,0,0,0,0,0,0,0,0,0,0,0,0,0,0,0,0,0,0,0,0,0,0,0,0,0,0,0,0,0,0,0,0,0,0,0,0,0,0,0,0,0,0,0,0,0,0,0,0.9962,0.9962,0,0.997,0.997,0.997,0.9955,0.9954,0.9954,0.9953,0.9963,0.9964,0.9964,0,0,0,0,0,0,0,0,0,0,0,0,0,0.9932,0.9932,0.9962,0.9962,0.9962,0.997,0.997,0.9971,0.9955,0.9954,0.9954,0.9953,0.9963,0.9963,0.9964,0,0,0,0,0,0,0,0,0,0,0,0,0,0.9943,0.9933,0.9962,0.9955,0.9955,0.997,0.997,0.9971,0.9955,0.9954,0.9953,0.9953,0.9962,0.9963,0.9965,0.9987,0,0,0.9968,0.9968,0,0,0,0,0,0,0,0,0.9942,0.9944,0.9956,0.9956,0.9955,0.9961,0.9963,0.9976,0.9955,0.9955,0.9953,0.9952,0.9963,0.9964,0.9967,0.9988,0.9988,0.9968,0.9969,0.9969,0.997,0,0,0,0,0,0,0,0.9942,0.9944,0.9965,0.9956,0.9956,0.9952,0.9952,0.9966,0.9963,0.9955,0.9954,0.9955,0.9962,0.9966,0.9967,0.9988,0.9968,0.9969,0.997,0.997,1.0026,1.0027,0,0,0,0,0,0,0.9942,0.9943,0.9965,0.9965,0.9947,0.9953,0.9954,0.996,0.9963,0.9963,0.9956,0.9954,0.9965,0.9966,0.9968,0.9994,0.9969,0.997,0.9971,1.0025,1.0026,1.0027,0,0,0,0,0,0,0.9941,0.9944,0.9965,0.9954,0.9956,0.9954,0.9961,0.996,0.9964,0.9964,0.9963,0.996,0.9964,0.9966,0.9982,0.9994,0.9971,0.9972,1.0024,1.0025,1.0027,1.0046,0,0,0,0,0,0,0.994,0.9944,0.9953,0.9954,0.9957,0.9979,0.9962,0.9961,0.9966,0.9964,0.9967,0.9967,0.9964,0.998,0.9983,0.9995,0.9973,1.0023,1.0025,1.0026,1.0044,1.0048,1.0051,0,0,0,0,0,0.9939,0.9958,0.9953,0.9956,0.9968,0.998,0.9981,0.9977,0.9967,0.9976,0.9975,0.9967,0.9992,0.9982,0.9985,0.9997,1.0022,1.0024,1.0026,1.0043,1.0047,1.0051,0,0,0,0,0,0,0.9959,0.9959,0.9953,0.9973,0.9976,0.9977,0.9988,0.9981,0.9988,0.9986,0.998,0.9981,0.9998,0.9999,0.9988,1.0019,1.0005,1.0008,1.0017,1.0021,1.0024,1.0024,0.9974,0,0,0,0,0,0.9965,0.9975,0.9974,0.9992,0.9994,0.9991,0.9996,0.9991,0.9995,0.9997,0.9997,1.0001,1.0009,1.0015,1.0023,1.0044,1.0044,1.0054,1.0057,1.006,1.0062,1.0072,1.0076,1.0033,1.0033,1.0033,0,0,0.998,0.998,0.9987,0.9996,0.9998,1.0008,0.9992,1.0004,1.0011,0.9999,1.0013,1.0014,1.0018,1.0036,1.0044,1.0037,1.0073,1.0062,1.0064,1.0065,1.0074,1.0078,1.0082,1.0034,1.0034,1.0034,0,0,1.001,1.0012,1.0026,1.0028,1.0032,1.0029,1.0032,1.0034,1.0033,1.0048,1.0038,1.0046,1.0061,1.0064,1.0067,1.0096,1.0089,1.0099,1.0116,1.0125,1.0129,1.0132,1.0142,1.0145,1.0101,1.0101,1.0101,0,1.0027,1.0042,1.0035,1.0046,1.005,1.0038,1.0052,1.0055,1.0061,1.0063,1.0056,1.0073,1.0075,1.0093,1.01,1.0103,1.0106,1.0099,1.0129,1.0132,1.0134,1.0144,1.0147,1.0102,1.0102,1.0102,1.0102,0,1.0062,1.0072,1.0083,1.0088,1.0093,1.0106,1.0101,1.0107,1.0101,1.0099,1.0113,1.0115,1.0122,1.0126,1.0121,1.0143,1.0138,1.013,1.0117,1.014,1.0148,1.0152,1.0104,1.0104,1.0103,1.0103,0,0,1.0107,1.0106,1.0111,1.0112,1.0114,1.0121,1.0133,1.0139,1.0144,1.0147,1.0157,1.0169,1.016,1.0164,1.0159,1.0168,1.0189,1.0158,1.0158,1.0163,1.0212,1.0219,1.0223,1.0184,1.0185,1.0185,1.0212,0,1.0137,1.0157,1.015,1.0171,1.0179,1.0167,1.0177,1.0178,1.0176,1.0183,1.0181,1.0189,1.0177,1.0179,1.0187,1.0185,1.0199,1.0183,1.0193,1.0193,1.0192,1.0227,1.0235,1.026,1.0215,1.0216,1.0216,0,1.0175,1.0179,1.02,1.0199,1.0202,1.0211,1.0215,1.0222,1.0223,1.0221,1.0224,1.0217,1.0227,1.0213,1.0228,1.0217,1.022,1.022,1.022,1.0221,1.0206,1.0229,1.0268,1.0271,1.0221,1.0221,1.022,0,1.0206,1.0216,1.023,1.0231,1.023,1.0236,1.0236,1.0236,1.024,1.0244,1.0246,1.0251,1.0254,1.0257,1.0251,1.0242,1.0266,1.0252,1.0264,1.0265,1.0271,1.0271,1.031,1.0273,1.0273,1.0273,1.0272,0,1.024,1.0253,1.0243,1.0251,1.0265,1.0257,1.0271,1.0269,1.0269,1.0276,1.0266,1.0273,1.0265,1.0271,1.0266,1.0278,1.028,1.0278,1.0276,1.0279,1.0279,1.0281,1.0279,1.0273,1.0273,1.0273,1.0273,0,1.0277,1.027,1.0284,1.0281,1.028,1.0291,1.0288,1.0295,1.0291,1.0301,1.0302,1.0296,1.0303,1.0297,1.0304,1.03,1.0316,1.0312,1.0316,1.0315,1.0327,1.0326,1.037,1.0375,1.0334,1.0335,1.0335,0,1.0299,1.0309,1.0306,1.031,1.031,1.0316,1.0319,1.0311,1.0314,1.0315,1.0322,1.0328,1.0332,1.0342,1.0339,1.0343,1.0339,1.0354,1.034,1.0342,1.0339,1.0339,1.0339,1.0357,1.0358,1.0358,1.0359,0,1.034,1.0335,1.034,1.0343,1.0347,1.035,1.0351,1.0355,1.0346,1.035,1.0356,1.0359,1.0365,1.037,1.0373,1.0372,1.0364,1.0363,1.0366,1.0369,1.037,1.0369,1.0324,1.0362,1.0362,1.0361,1.0361,1.0361,1.037,1.0377,1.0376,1.0381,1.0381,1.0382,1.0388,1.0384,1.0389,1.0393,1.0387,1.0394,1.0393,1.0396,1.0396,1.0402,1.0395,1.04,1.0401,1.0402,1.0404,1.0369,1.0402,1.0402,1.0402,1.0402,1.0402,0,1.0409,1.0407,1.0412,1.0414,1.0417,1.0408,1.0409,1.0412,1.0419,1.0418,1.0422,1.0428,1.0432,1.0428,1.0432,1.0437,1.0433,1.0438,1.0438,1.0437,1.041,1.0407,1.0441,1.0441,1.0441,1.0441,1.0441,1.0441,1.043,1.0442,1.0437,1.0448,1.0446,1.0453,1.0454,1.0454,1.0454,1.0461,1.0464,1.0461,1.0459,1.0462,1.0465,1.0463,1.0465,1.0472,1.0469,1.0443,1.044,1.0436,1.0433,1.0472,1.0472,1.0496,1.0496,1.0497]},{"header":{"parameterUnit":"m.s-1","parameterCategory":1,"la1":30.2991,"la2":30.254,"lo1":-89.0895,"lo2":-89.0444,"dy":0.0017,"dx":0.0017,"nx":28,"ny":28,"refTime":"2025-05-15T03:00:00:Z","depth":0,"parameterNumber":3,"parameterNumberName":"V-component_of_WINDS"},"data":[0,0,0,0,0,0,0,0,0,0,0,0,0,0,0,0,0,0,0,0,0,0,0,0,0,0,0,0,0,0,0,0,0,0,0,0,0,0,0,0,0,0,0,0,0,0,0,0,0,0,0,0,0,0,0,0,0,0,4.5572,4.5572,0,4.5538,4.5538,4.5538,4.5512,4.5512,4.5511,4.5511,4.5474,4.5473,4.5472,0,0,0,0,0,0,0,0,0,0,0,0,0,4.5611,4.5611,4.5572,4.5571,4.5571,4.5538,4.5538,4.5538,4.5512,4.5512,4.5511,4.5511,4.5474,4.5473,4.5472,0,0,0,0,0,0,0,0,0,0,0,0,0,4.5587,4.561,4.5572,4.5554,4.5553,4.5539,4.5538,4.5537,4.5512,4.5512,4.5511,4.5511,4.5474,4.5473,4.5472,4.5471,0,0,4.5468,4.5468,0,0,0,0,0,0,0,0,4.5589,4.5586,4.5557,4.5556,4.5554,4.5529,4.5538,4.5515,4.5512,4.5527,4.5511,4.5511,4.5492,4.5489,4.5484,4.547,4.5468,4.5468,4.5467,4.5467,4.5467,0,0,0,0,0,0,0,4.559,4.5587,4.5559,4.5557,4.5555,4.5547,4.5544,4.5534,4.5512,4.5526,4.5524,4.5521,4.5491,4.5485,4.5483,4.5467,4.5468,4.5467,4.5466,4.5466,4.5452,4.5453,0,0,0,0,0,0,4.5595,4.5589,4.556,4.5558,4.5571,4.5547,4.5543,4.5537,4.5512,4.5508,4.5521,4.552,4.5487,4.5484,4.5481,4.548,4.5467,4.5466,4.5465,4.5452,4.5452,4.5453,0,0,0,0,0,0,4.5596,4.5593,4.5561,4.5573,4.5568,4.5547,4.5541,4.5537,4.5531,4.5508,4.5504,4.5519,4.5487,4.5483,4.5475,4.5478,4.5465,4.5464,4.5452,4.5452,4.5453,4.5477,0,0,0,0,0,0,4.5597,4.5593,4.5594,4.5573,4.5568,4.5556,4.5541,4.5536,4.5529,4.5527,4.5505,4.5501,4.5486,4.5476,4.5473,4.5477,4.5463,4.5451,4.5452,4.5452,4.5476,4.5479,4.5481,0,0,0,0,0,4.5599,4.5601,4.5594,4.559,4.5568,4.5556,4.5553,4.5536,4.553,4.5529,4.5515,4.5502,4.5478,4.5476,4.5472,4.5475,4.5451,4.5452,4.5452,4.5475,4.5478,4.5481,0,0,0,0,0,0,4.5621,4.5598,4.559,4.5585,4.5573,4.5552,4.5551,4.554,4.5528,4.5527,4.5506,4.5501,4.5495,4.5484,4.5481,4.5474,4.5463,4.5463,4.5481,4.5484,4.5487,4.549,4.5462,0,0,0,0,0,4.5626,4.562,4.5599,4.5597,4.5591,4.5572,4.5567,4.5555,4.5541,4.5535,4.552,4.5506,4.5496,4.5489,4.5478,4.5474,4.5469,4.5474,4.5477,4.5479,4.5479,4.5477,4.5479,4.5455,4.5455,4.5455,0,0,4.5635,4.5622,4.5618,4.5601,4.559,4.5584,4.5568,4.5561,4.5556,4.5534,4.5526,4.5514,4.5497,4.5491,4.5488,4.5482,4.5485,4.548,4.5482,4.5481,4.5478,4.548,4.5482,4.5456,4.5456,4.5456,0,0,4.5649,4.5638,4.5635,4.5625,4.5609,4.5597,4.5596,4.5577,4.5569,4.5561,4.5544,4.5537,4.5519,4.5508,4.55,4.551,4.5498,4.5507,4.5519,4.5518,4.552,4.5521,4.5526,4.5527,4.5507,4.5507,4.5507,0,4.5662,4.5652,4.5635,4.563,4.5623,4.5604,4.5602,4.5592,4.5573,4.5568,4.5562,4.554,4.5527,4.5519,4.5522,4.5515,4.5514,4.551,4.5521,4.5522,4.5523,4.5528,4.5529,4.5509,4.5508,4.5508,4.5508,0,4.5669,4.5663,4.5662,4.5646,4.5639,4.5635,4.5617,4.5612,4.5601,4.5589,4.5581,4.5565,4.5551,4.5548,4.5536,4.5538,4.5535,4.5525,4.5514,4.5527,4.5531,4.5532,4.551,4.551,4.551,4.5509,0,0,4.5696,4.5672,4.5672,4.5665,4.5646,4.564,4.5635,4.5623,4.5619,4.5606,4.5602,4.5587,4.5579,4.5569,4.5557,4.5555,4.5565,4.5545,4.5544,4.555,4.5567,4.5576,4.5578,4.5557,4.5557,4.5557,4.5569,0,4.5707,4.5699,4.5684,4.568,4.5674,4.5656,4.5652,4.5639,4.5628,4.5621,4.5607,4.5598,4.5587,4.5581,4.5579,4.5565,4.5568,4.5563,4.5552,4.5552,4.5558,4.5579,4.5588,4.56,4.557,4.557,4.557,0,4.5719,4.571,4.5706,4.5688,4.5685,4.5682,4.567,4.5663,4.5648,4.564,4.5631,4.5617,4.5611,4.56,4.5591,4.5588,4.5582,4.5575,4.5575,4.5574,4.5563,4.5579,4.5603,4.5605,4.5572,4.5572,4.5572,0,4.5741,4.5726,4.5722,4.5716,4.5696,4.5694,4.5685,4.5671,4.5665,4.5653,4.5649,4.5637,4.563,4.5621,4.5604,4.5598,4.5597,4.5585,4.559,4.5591,4.5591,4.5592,4.5615,4.5586,4.5586,4.5586,4.5586,0,4.5755,4.5754,4.5732,4.5729,4.5727,4.5709,4.5707,4.5696,4.5684,4.5679,4.5662,4.5657,4.5635,4.5628,4.5614,4.5609,4.5606,4.5599,4.5596,4.5601,4.5602,4.5598,4.5597,4.5587,4.5587,4.5586,4.5586,0,4.5779,4.5764,4.5759,4.574,4.5736,4.5735,4.5719,4.5715,4.5703,4.5697,4.5694,4.5675,4.5666,4.5648,4.5633,4.5624,4.5622,4.5615,4.5627,4.5625,4.5632,4.5632,4.5654,4.5656,4.5625,4.5626,4.5626,0,4.579,4.5788,4.577,4.5766,4.5759,4.5752,4.5746,4.5728,4.5723,4.5707,4.5706,4.5695,4.5686,4.5672,4.5656,4.5644,4.5638,4.5646,4.5636,4.5642,4.5639,4.564,4.564,4.5649,4.565,4.565,4.565,0,4.5811,4.5804,4.5796,4.5787,4.578,4.5771,4.5761,4.5759,4.5739,4.5733,4.5724,4.5717,4.5703,4.5693,4.5679,4.5669,4.5657,4.5654,4.5654,4.566,4.5668,4.5665,4.5635,4.5653,4.5653,4.5653,4.5653,4.5652,4.5829,4.5827,4.5815,4.5807,4.5798,4.579,4.5786,4.5774,4.5767,4.5755,4.5744,4.5736,4.5722,4.5703,4.5694,4.5687,4.5681,4.5682,4.5682,4.5683,4.5686,4.5668,4.5684,4.5684,4.5684,4.5684,4.5684,0,4.585,4.5841,4.5835,4.5822,4.5816,4.5806,4.5794,4.579,4.5784,4.5772,4.5764,4.5754,4.5744,4.5728,4.5717,4.5714,4.5708,4.5712,4.5713,4.5711,4.5691,4.5692,4.5717,4.5717,4.5717,4.5717,4.5717,4.5717,4.586,4.5858,4.5849,4.5842,4.5832,4.5826,4.582,4.5812,4.5803,4.5793,4.5786,4.5775,4.5762,4.575,4.5741,4.5736,4.5733,4.5739,4.5733,4.5715,4.5712,4.5709,4.571,4.5738,4.5738,4.5753,4.5753,4.5753]}]]